Date String (YYYY-MM-DD hh:mm:ss) UTC,Instrument flags,Ambient pressure (hPa),Sample flow (lpm),Bypass flow (lpm),Sample temperature (°C),Ambient temperature (°C),ASC tube jacket temperature (°C),LED temperature (°C),Box temperature (°C),Sample RH (%),Span deviation,Mass concentration (μg/m³),Mass concentration (μg/m³),Mass concentration (μg/m³)
DateTimeUTC,F1_M11,P_M11,Q1_M11,Q2_M11,T1_M11,T2_M11,T3_M11,T4_M11,T5_M11,U1_M11,ZSPAN_M11,X0_M11,X2_M11,X1_M11
2022-07-20 23:00:00,,0829.3,4.99,0.00,29.2,27.0,00.0,37.8,31.1,26.8,0000.0,0018.43,0006.95,0004.99
2022-07-20 23:01:00,,0829.3,5.01,0.00,29.2,26.9,00.0,37.8,31.0,26.4,0000.0,0017.54,0006.94,0004.98
2022-07-20 23:02:00,,0829.3,5.00,0.00,29.1,27.0,00.0,37.8,30.9,26.6,0000.0,0017.12,0006.93,0004.97
2022-07-20 23:03:00,,0829.2,5.00,0.00,29.1,27.1,00.0,37.8,31.0,25.9,0000.0,0016.91,0006.89,0004.95
2022-07-20 23:04:00,,0828.9,5.01,0.00,29.1,27.3,00.0,37.8,31.0,26.2,0000.0,0016.66,0006.93,0004.93
2022-07-20 23:05:00,,0829.0,5.00,0.00,29.1,27.5,00.0,37.8,31.1,25.9,0000.0,0016.74,0006.96,0004.89
2022-07-20 23:06:00,,0828.9,4.99,0.00,29.1,27.8,00.0,37.8,31.1,26.1,0000.0,0017.40,0006.97,0004.86
2022-07-20 23:07:00,,0828.7,5.01,0.00,29.2,27.9,00.0,37.9,31.2,26.4,0000.0,0018.74,0006.96,0004.84
2022-07-20 23:08:00,,0828.7,4.99,0.00,29.2,28.1,00.0,37.9,31.3,26.2,0000.0,0019.50,0006.95,0004.80
2022-07-20 23:09:00,,0828.7,5.00,0.00,29.2,27.7,00.0,37.8,31.2,26.3,0000.0,0019.00,0006.87,0004.75
2022-07-20 23:10:00,,0828.8,5.01,0.00,29.2,27.1,00.0,37.8,31.1,26.5,0000.0,0019.37,0006.78,0004.72
2022-07-20 23:11:00,,0828.7,4.99,0.00,29.2,26.9,00.0,37.8,31.0,26.5,0000.0,0019.03,0006.75,0004.69
2022-07-20 23:12:00,,0828.7,5.00,0.00,29.1,27.0,00.0,37.8,31.0,27.5,0000.0,0019.21,0006.75,0004.70
2022-07-20 23:13:00,,0828.9,5.01,0.00,29.1,27.1,00.0,37.8,31.0,27.7,0000.0,0019.11,0006.74,0004.69
2022-07-20 23:14:00,,0829.3,5.00,0.00,29.1,27.3,00.0,37.8,31.0,27.2,0000.0,0019.24,0006.74,0004.69
2022-07-20 23:15:00,,0829.3,5.01,0.00,29.1,27.5,00.0,37.8,31.1,26.4,0000.0,0018.92,0006.66,0004.67
2022-07-20 23:16:00,,0829.4,5.00,0.00,29.1,27.7,00.0,37.9,31.1,26.4,0000.0,0018.94,0006.69,0004.67
2022-07-20 23:17:00,,0829.0,5.00,0.00,29.2,27.9,00.0,37.9,31.2,26.7,0000.0,0018.78,0006.80,0004.71
2022-07-20 23:18:00,,0828.9,5.01,0.00,29.2,28.1,00.0,37.9,31.3,27.0,0000.0,0017.47,0006.79,0004.72
2022-07-20 23:19:00,,0829.0,5.00,0.00,29.3,28.1,00.0,37.9,31.3,26.6,0000.0,0016.55,0006.78,0004.73
2022-07-20 23:20:00,,0828.8,5.01,0.00,29.3,27.5,00.0,37.8,31.2,26.0,0000.0,0016.44,0006.74,0004.75
2022-07-20 23:21:00,,0828.8,5.00,0.00,29.2,27.0,00.0,37.8,31.1,26.7,0000.0,0015.59,0006.69,0004.75
2022-07-20 23:22:00,,0828.8,5.00,0.00,29.2,26.9,00.0,37.8,31.1,27.1,0000.0,0015.64,0006.75,0004.75
2022-07-20 23:23:00,,0828.9,5.00,0.00,29.1,27.0,00.0,37.8,31.0,27.2,0000.0,0015.93,0006.76,0004.75
2022-07-20 23:24:00,,0829.0,5.01,0.00,29.1,27.2,00.0,37.8,31.0,27.2,0000.0,0016.00,0006.68,0004.75
2022-07-20 23:25:00,,0829.1,5.00,0.00,29.1,27.4,00.0,37.9,31.0,27.5,0000.0,0016.14,0006.69,0004.75
2022-07-20 23:26:00,,0829.2,5.01,0.00,29.1,27.6,00.0,37.9,31.1,27.1,0000.0,0016.05,0006.70,0004.76
2022-07-20 23:27:00,,0829.4,4.99,0.00,29.2,27.8,00.0,37.9,31.2,27.0,0000.0,0016.94,0006.65,0004.78
2022-07-20 23:28:00,,0829.4,5.00,0.00,29.2,28.0,00.0,37.9,31.2,27.0,0000.0,0017.20,0006.58,0004.76
2022-07-20 23:29:00,,0829.5,4.99,0.00,29.3,28.1,00.0,37.9,31.3,27.8,0000.0,0019.11,0006.64,0004.77
2022-07-20 23:30:00,,0829.6,5.00,0.00,29.3,27.6,00.0,37.9,31.3,29.3,0000.0,0020.05,0006.72,0004.77
2022-07-20 23:31:00,,0829.5,5.01,0.00,29.3,27.0,00.0,37.8,31.1,30.5,0000.0,0021.00,0006.92,0004.81
2022-07-20 23:32:00,,0829.5,4.99,0.00,29.2,26.9,00.0,37.8,31.1,30.4,0000.0,0021.93,0007.04,0004.86
2022-07-20 23:33:00,,0829.3,5.01,0.00,29.2,27.0,00.0,37.8,31.0,30.1,0000.0,0021.74,0007.05,0004.88
2022-07-20 23:34:00,,0829.3,5.00,0.00,29.1,27.1,00.0,37.8,31.0,29.9,0000.0,0021.25,0007.02,0004.87
2022-07-20 23:35:00,,0829.3,5.00,0.00,29.1,27.3,00.0,37.8,31.0,31.9,0000.0,0021.05,0007.02,0004.84
2022-07-20 23:36:00,,0829.2,5.01,0.00,29.1,27.5,00.0,37.9,31.1,30.2,0000.0,0021.15,0006.95,0004.80
2022-07-20 23:37:00,,0829.3,4.99,0.00,29.2,27.7,00.0,37.9,31.1,30.7,0000.0,0021.90,0006.90,0004.75
2022-07-20 23:38:00,,0829.1,5.00,0.00,29.2,27.9,00.0,37.9,31.2,31.1,0000.0,0021.64,0006.85,0004.69
2022-07-20 23:39:00,,0829.0,5.00,0.00,29.2,28.1,00.0,37.9,31.3,31.2,0000.0,0022.73,0006.82,0004.65
2022-07-20 23:40:00,,0829.0,5.00,0.00,29.3,28.0,00.0,37.9,31.3,32.0,0000.0,0022.20,0006.74,0004.62
2022-07-20 23:41:00,,0829.0,4.99,0.00,29.3,27.3,00.0,37.9,31.2,32.3,0000.0,0022.91,0006.69,0004.61
2022-07-20 23:42:00,,0829.0,5.01,0.00,29.2,26.9,00.0,37.8,31.1,31.1,0000.0,0022.88,0006.58,0004.56
2022-07-20 23:43:00,,0829.0,5.00,0.00,29.2,26.9,00.0,37.8,31.0,31.1,0000.0,0021.89,0006.44,0004.49
2022-07-20 23:44:00,,0829.0,5.01,0.00,29.1,27.0,00.0,37.8,31.0,31.3,0000.0,0021.91,0006.34,0004.42
2022-07-20 23:45:00,,0829.1,5.00,0.00,29.1,27.2,00.0,37.9,31.0,31.3,0000.0,0022.34,0006.28,0004.40
2022-07-20 23:46:00,,0829.1,4.99,0.00,29.1,27.4,00.0,37.9,31.0,31.6,0000.0,0022.47,0006.25,0004.39
2022-07-20 23:47:00,,0829.1,5.01,0.00,29.1,27.6,00.0,37.9,31.1,31.4,0000.0,0021.17,0006.28,0004.40
2022-07-20 23:48:00,,0829.1,5.00,0.00,29.2,27.8,00.0,37.9,31.2,32.0,0000.0,0020.47,0006.28,0004.42
2022-07-20 23:49:00,,0829.1,4.99,0.00,29.2,28.0,00.0,37.9,31.2,32.5,0000.0,0020.33,0006.30,0004.43
2022-07-20 23:50:00,,0829.1,5.00,0.00,29.2,28.1,00.0,37.9,31.3,33.2,0000.0,0018.81,0006.28,0004.43
2022-07-20 23:51:00,,0829.0,5.01,0.00,29.3,28.1,00.0,37.9,31.3,32.8,0000.0,0017.57,0006.31,0004.41
2022-07-20 23:52:00,,0829.1,5.00,0.00,29.3,27.5,00.0,37.9,31.3,33.1,0000.0,0015.93,0006.31,0004.40
2022-07-20 23:53:00,,0829.0,4.99,0.00,29.3,27.0,00.0,37.8,31.2,33.5,0000.0,0015.32,0006.27,0004.39
2022-07-20 23:54:00,,0829.0,5.01,0.00,29.2,26.9,00.0,37.8,31.1,33.7,0000.0,0015.31,0006.34,0004.39
2022-07-20 23:55:00,,0829.0,4.99,0.00,29.2,27.0,00.0,37.9,31.0,33.8,0000.0,0015.18,0006.34,0004.39
2022-07-20 23:56:00,,0829.0,5.01,0.00,29.1,27.1,00.0,37.9,31.0,34.1,0000.0,0014.77,0006.32,0004.39
2022-07-20 23:57:00,,0829.0,5.00,0.00,29.1,27.3,00.0,37.9,31.0,33.9,0000.0,0014.36,0006.36,0004.39
2022-07-20 23:58:00,,0828.9,5.00,0.00,29.1,27.5,00.0,37.9,31.1,33.9,0000.0,0014.22,0006.34,0004.38
2022-07-20 23:59:00,,0828.8,5.00,0.00,29.2,27.7,00.0,37.9,31.1,34.3,0000.0,0014.96,0006.38,0004.38
